Regional Weather Roundup
Issued by NWS

Home | Current Version | Previous Version | Graphics & Text | Print | Product List | Glossary Off
Versions: 1 2 3 4 5 6 7 8 9 10 11 12 13 14 15 16 17 18 19 20 21 22 23 24 25 26 27 28 29 30 31 32 33 34 35 36 37 38 39 40 41 42 43 44 45 46 47 48 49 50

000
ASUS43 KTOP 240108
RWRKS

WEATHER ROUNDUP FOR KANSAS
NATIONAL WEATHER SERVICE GOODLAND KS
800 PM CDT TUE MAY 23 2017

NOTE:  "FAIR" INDICATES FEW OR NO CLOUDS BELOW 12,000 FEET WITH NO
SIGNIFICANT WEATHER AND/OR OBSTRUCTIONS TO VISIBILITY.

KSZ001>006-013>018-027>032-041>047-240200-
NORTHWEST KANSAS

CITY           SKY/WX    TMP DP  RH WIND       PRES   REMARKS
GOODLAND       MOCLDY    56  36  47 N12       30.01S
HAYS           MOCLDY    57  40  52 N17       29.95R
HILL CITY      MOCLDY    60  37  42 N18G24    29.97S
RUSSELL        PTCLDY    56  40  55 N18G31    29.92S
$$

KSZ061>065-074>080-084>089-240200-
SOUTHWEST KANSAS

CITY           SKY/WX    TMP DP  RH WIND       PRES   REMARKS
DODGE CITY     CLOUDY    58  40  51 N9        29.97S
ELKHART          N/A     61  31  32 N12         N/A
GARDEN CITY    CLOUDY    58  36  43 N14       29.99F
GREAT BEND     PTCLDY    58  41  53 N22       29.93R
LIBERAL        CLOUDY    62  38  40 N17       30.00S
PRATT          MOCLDY    57  41  55 N8        29.93S
$$

KSZ066>073-081>083-090>101-240200-
SOUTHEAST KANSAS

CITY           SKY/WX    TMP DP  RH WIND       PRES   REMARKS
CHANUTE        CLOUDY    59  48  67 NW7       29.83
COFFEYVILLE    CLOUDY    61  49  64 NW16G25   29.83R
HUTCHINSON     CLOUDY    59  41  51 N10       29.90R
MEDICINE LODGE   N/A     60  42  51 N8        29.92S
NEWTON         CLOUDY    57  43  59 NW16      29.89R
PARSONS        CLOUDY    57  50  77 NW12G22   29.84F
WICHITA INTL   MOCLDY    60  40  47 NW23G36   29.88R
WICHITA JABRA  PTCLDY    60  41  49 N16G29    29.87S
WICHITA MCCONL PTCLDY    62  40  45 NW22G30   29.87S
WINFIELD       CLOUDY    58  47  66 NW7       29.88F
$$

KSZ007>012-019>026-033>040-048>060-102>105-240200-
NORTHEAST KANSAS

CITY           SKY/WX    TMP DP  RH WIND       PRES   REMARKS
CONCORDIA      CLOUDY    55  44  66 N14G22    29.89S
EMPORIA        LGT RAIN  55  52  89 NW9       29.84S
LAWRENCE       CLOUDY    57  54  89 W5        29.82S
MANHATTAN      CLOUDY    57  44  62 N7        29.86R
MARYSVILLE     CLOUDY    54  46  76 N17       29.85F
OLATHE IND     CLOUDY    53  51  93 NW8       29.82S
OLATHE EXE     CLOUDY    53  53 100 NW6       29.81S
SALINA         CLEAR     59  44  57 N14       29.89S
TOPEKA BILLARD CLOUDY    57  52  83 NW5       29.83R
TOPEKA FORBES  CLOUDY    58  49  72 N9        29.83R
$$



USA.gov is the U.S. government's official web portal to all federal, state and local government web resources and services.